Cloud_Cover
56 80 92 92 80 80 76 56 76 88 92 92 92 88 76 64 44 44 48 64 64 80 92 92 92 92 88 92 92 92 92 80 32 20 24 36 8 0 0 0 0 36 64 20 12 8 0 0 0 0 0 0 0 20 44 48 48 76 92 92 92 92 92 92 92 92 92 92 88
8 12 32 92 92 92 88 68 76 88 92 92 92 92 88 64 44 48 64 68 68 88 92 92 92 92 88 88 80 80 80 80 36 32 36 44 8 0 0 0 0 36 64 36 24 8 0 0 12 20 12 12 12 8 12 32 32 64 92 92 92 92 92 92 92 92 92 92 92
0 8 36 92 80 80 80 80 88 92 92 92 92 92 88 56 56 64 76 88 88 92 92 92 92 88 88 80 88 92 88 68 32 32 44 48 12 0 0 0 0 32 56 12 12 8 0 0 24 32 32 36 32 12 8 8 24 64 92 92 92 92 92 92 92 92 92 92 92
20 32 36 32 44 64 80 80 92 92 92 80 92 92 88 56 80 88 88 92 92 92 92 92 92 88 80 88 92 92 92 80 56 44 56 92 24 8 8 8 0 24 36 20 32 20 12 48 64 64 56 56 36 20 0 0 56 88 92 92 92 92 92 92 92 92 92 92 92
64 76 64 24 36 56 76 92 92 92 92 80 92 92 88 76 88 88 88 92 92 92 92 92 92 88 80 88 92 92 92 80 80 88 92 92 32 8 8 8 0 20 48 64 48 32 24 68 76 76 68 48 24 12 0 0 68 92 92 92 92 92 92 92 92 88 88 92 92
56 56 48 44 64 80 92 92 92 88 80 92 92 92 92 88 88 88 92 92 92 92 92 92 88 80 80 80 88 88 80 64 56 76 92 92 48 20 8 8 0 20 56 92 64 44 48 80 80 88 76 36 20 8 0 0 48 76 92 92 92 92 92 80 92 92 92 92 92
32 20 24 56 80 92 92 92 80 76 76 88 88 92 88 80 88 92 92 92 92 92 92 92 88 80 76 76 88 92 80 44 32 64 92 92 92 48 8 0 0 12 44 92 68 64 64 80 80 88 76 24 12 8 12 48 64 80 92 92 92 92 88 80 92 92 92 92 92
36 48 64 76 88 88 88 88 80 80 88 88 88 88 88 88 88 92 92 92 92 92 92 92 76 68 68 80 92 88 64 24 20 32 64 92 92 48 8 0 0 8 24 32 68 76 76 88 88 88 76 44 76 88 92 92 92 88 92 92 92 92 92 92 92 92 92 92 92
24 48 68 68 76 88 88 88 88 80 80 88 80 80 88 88 92 92 92 92 92 92 92 92 68 68 80 92 92 88 64 24 12 24 48 92 92 56 12 0 0 8 24 36 76 80 76 80 88 76 48 24 76 92 92 88 88 88 88 88 92 92 92 92 92 92 92 92 92
24 44 64 68 68 76 80 92 80 80 88 80 80 80 88 88 92 92 92 92 92 92 92 92 68 68 80 88 92 92 88 56 20 20 32 68 76 76 48 0 0 24 64 88 88 76 76 88 88 68 44 32 76 92 92 92 68 56 68 92 92 92 92 92 92 92 92 92 92
24 44 76 92 88 80 88 92 92 88 80 76 64 64 68 92 92 92 92 92 92 92 88 76 68 64 56 56 68 80 92 92 36 20 32 56 88 80 56 0 20 56 92 88 76 76 76 80 64 76 92 92 92 92 92 92 48 48 64 80 92 92 88 92 92 92 92 92 92
24 44 76 92 80 80 88 92 92 88 76 68 64 56 64 92 92 92 92 92 92 88 80 88 76 64 44 44 44 64 88 92 44 24 36 56 80 76 44 12 68 92 88 80 76 76 80 76 48 68 88 92 92 92 92 92 44 56 80 92 92 92 92 88 92 92 92 92 92
24 36 48 68 76 80 80 88 76 64 56 56 48 56 68 92 92 92 92 92 92 76 68 80 76 56 44 44 44 48 64 92 48 44 64 92 88 56 32 12 68 88 80 76 76 80 80 76 64 68 80 92 92 92 92 92 56 68 92 92 92 92 92 92 92 92 92 92 92
24 32 32 36 44 56 64 64 64 44 32 36 56 80 92 88 88 92 92 88 68 64 64 80 92 76 48 64 68 76 80 80 48 68 92 92 80 56 36 44 80 80 68 80 80 80 76 68 88 88 80 92 92 92 92 92 76 80 92 92 92 92 92 92 92 92 92 92 92
20 32 36 44 44 48 56 64 68 64 64 80 80 80 68 48 76 88 88 68 48 56 76 88 92 80 68 76 92 92 80 36 24 56 88 76 68 68 80 92 88 88 88 88 80 68 64 80 76 64 64 92 92 92 92 92 92 92 92 92 92 92 92 92 92 92 92 92 92
24 36 56 64 68 76 80 80 80 76 68 76 68 44 24 20 76 92 88 76 76 80 88 92 92 88 80 88 92 92 80 32 20 44 68 44 48 76 92 88 88 92 92 92 80 68 68 80 56 36 44 92 92 92 92 92 92 92 92 92 92 92 92 92 92 92 92 92 92
36 64 80 80 88 92 92 92 92 76 48 32 48 44 36 48 88 92 92 92 92 92 92 92 92 92 88 92 92 80 68 56 24 32 44 12 44 68 88 92 92 92 92 92 80 76 80 80 44 32 36 56 80 88 92 92 92 92 92 92 92 92 92 92 92 92 92 92 92
56 68 80 92 92 92 92 92 80 56 32 8 44 76 88 80 88 92 92 92 92 92 92 92 92 92 92 92 92 76 44 24 12 24 44 36 64 80 92 92 92 92 92 92 64 68 88 80 48 36 36 20 68 92 92 92 92 92 92 92 92 92 92 92 92 92 92 92 92
68 68 76 80 88 92 92 92 64 44 32 48 68 88 92 92 88 92 92 92 92 92 92 92 92 92 92 92 92 80 56 24 24 36 56 88 88 92 92 92 92 92 92 92 68 64 76 88 80 64 48 56 80 92 92 92 92 92 92 92 92 92 92 92 92 92 92 92 92
76 68 64 64 68 80 92 92 80 68 76 88 76 80 92 92 92 92 92 92 92 92 92 92 92 92 92 92 92 88 80 76 76 80 88 92 92 92 92 92 92 92 92 88 68 68 80 92 92 88 80 92 92 92 92 92 92 92 92 92 92 92 92 92 92 92 92 92 92
80 80 80 68 76 88 92 92 92 88 80 92 88 88 92 92 92 92 92 92 88 88 92 92 92 80 80 92 76 80 92 92 92 92 92 92 92 92 92 92 92 92 92 88 80 80 88 92 92 92 92 92 92 92 92 92 92 92 92 92 92 92 92 92 92 92 92 92 92
80 88 92 88 92 92 92 92 92 92 88 92 92 92 92 92 92 88 68 48 64 80 92 92 88 68 64 92 76 80 92 92 92 92 92 92 92 92 92 92 92 92 92 92 88 88 88 92 92 92 92 92 92 92 92 92 92 92 80 76 80 88 92 92 92 92 92 92 92
88 88 92 92 88 88 80 88 92 92 92 92 92 92 92 88 80 68 56 48 64 76 92 88 92 76 68 88 88 92 92 92 92 92 92 92 92 92 92 88 88 92 92 92 92 92 92 92 92 92 92 92 92 92 92 92 92 92 88 76 88 92 92 92 92 92 92 92 92
92 92 92 92 92 80 76 68 76 88 92 92 92 92 92 92 88 68 64 64 76 80 88 80 92 80 76 92 92 92 92 92 92 92 92 92 92 92 92 88 92 92 92 92 92 92 92 92 92 92 92 92 92 92 92 92 92 92 92 88 92 92 88 88 92 92 92 92 92
92 92 92 92 92 92 92 88 68 80 92 92 92 92 92 92 92 92 88 92 92 88 88 92 92 92 92 92 92 92 92 88 92 92 92 92 92 92 92 92 92 92 92 92 92 92 92 92 92 92 92 92 92 92 92 92 92 92 92 92 92 92 88 76 80 92 92 92 92
92 92 92 92 92 92 92 92 92 92 92 92 92 92 92 92 92 92 92 92 92 92 92 92 92 92 92 92 92 92 92 88 88 92 92 92 92 92 92 92 92 92 92 92 92 92 92 92 92 92 92 92 92 92 88 92 92 92 92 92 92 92 92 92 88 92 92 92 92
92 92 92 92 92 92 92 92 92 92 92 92 92 92 92 92 92 92 92 92 92 92 92 92 92 92 92 92 92 92 92 92 92 92 92 92 92 92 92 92 92 92 92 92 92 92 92 92 92 92 92 92 92 88 88 92 92 92 92 92 92 92 92 92 92 92 92 92 92
92 92 92 92 92 92 92 92 92 92 92 92 92 92 92 92 92 92 92 92 92 92 92 92 92 92 92 92 92 92 92 92 92 92 92 92 92 92 92 92 92 92 92 92 92 92 92 92 92 92 92 92 92 92 92 92 92 92 92 92 92 92 92 92 92 92 92 92 92
92 92 92 92 92 92 92 92 92 92 92 92 92 92 92 92 92 92 92 92 92 92 92 92 92 92 92 92 92 92 92 92 92 92 92 92 92 92 92 92 92 92 92 92 92 92 92 92 92 92 92 92 92 92 92 92 92 92 92 80 92 92 92 92 92 92 92 92 92
92 92 92 92 92 92 92 92 92 92 92 92 92 92 92 92 92 92 92 92 92 92 92 92 92 92 92 92 92 92 92 92 92 92 92 92 92 92 92 92 92 92 92 92 92 92 92 92 92 92 92 92 88 92 92 92 76 68 76 92 92 92 92 92 92 92 92 92 92
92 92 92 92 92 92 92 92 92 92 92 92 92 92 92 92 92 92 92 92 92 92 92 92 92 92 92 92 92 92 92 92 92 92 92 92 92 92 92 92 92 92 92 92 92 92 92 92 92 92 92 92 92 92 92 92 92 80 76 92 92 92 92 92 92 92 92 92 92
92 92 92 92 92 92 92 92 92 92 92 92 92 92 92 92 92 92 92 92 92 92 92 92 92 92 92 92 92 92 92 92 92 92 92 92 92 92 92 92 92 92 92 92 92 92 92 92 92 92 92 92 92 92 92 92 92 92 88 92 92 92 92 92 92 92 92 100 92
92 92 92 92 92 92 92 92 92 92 92 92 92 92 92 92 92 92 92 92 92 92 92 92 92 92 92 92 92 92 92 92 92 92 92 92 92 92 92 92 92 92 92 92 92 92 92 92 92 92 92 92 92 92 92 92 92 92 92 92 92 92 92 92 92 92 92 92 92
92 92 92 92 92 92 92 92 92 92 92 92 92 92 92 92 92 92 92 92 92 92 92 92 92 92 92 92 92 92 92 92 92 92 92 92 92 92 92 92 92 92 92 92 92 92 92 92 92 92 92 92 92 92 92 92 92 92 92 92 92 92 92 92 92 92 92 92 92
92 92 92 92 92 92 92 92 92 92 92 92 92 92 92 92 92 92 92 92 92 92 92 92 92 92 92 92 92 92 92 92 92 92 92 92 92 92 88 92 92 92 92 92 92 92 92 92 92 92 92 92 92 92 92 92 92 92 92 92 92 92 92 92 92 92 92 92 92
92 92 92 92 92 92 92 92 92 92 92 92 92 92 92 92 92 92 92 92 92 92 92 92 92 92 92 92 92 92 92 92 92 92 92 92 92 92 92 92 92 92 92 92 92 92 92 92 92 92 92 92 92 92 92 92 92 92 92 92 92 92 92 92 92 92 92 92 92
92 92 92 92 92 92 92 92 88 92 92 92 92 92 92 92 92 92 92 92 92 92 92 92 92 92 92 92 92 92 92 92 92 92 92 92 92 92 92 92 92 92 92 92 92 92 92 92 92 92 92 92 92 92 92 92 92 92 92 92 92 92 92 92 92 92 92 100 92
92 92 92 92 92 92 92 92 92 92 92 92 92 92 92 92 92 92 92 92 92 92 92 92 92 92 92 92 92 92 100 100 92 92 92 92 92 92 92 92 92 92 92 100 92 92 92 92 92 92 92 92 92 92 92 92 92 92 92 92 92 92 92 92 92 92 92 92 92
92 92 92 92 92 92 92 92 92 92 92 92 92 92 92 92 92 92 92 92 92 92 92 92 92 92 92 92 92 92 100 100 92 92 92 92 92 92 92 92 92 92 92 100 92 92 92 92 92 92 92 92 92 92 92 92 92 92 92 92 92 92 92 92 92 92 92 92 92
92 92 92 92 92 92 92 92 92 92 92 92 92 92 92 92 92 92 92 92 92 92 92 92 92 92 92 92 92 92 92 92 92 92 92 92 92 100 92 92 92 92 92 92 92 92 92 92 92 92 92 92 92 92 92 92 92 92 92 92 92 92 92 92 92 92 92 92 92
92 92 92 92 92 92 92 92 92 92 92 92 92 92 92 92 92 92 92 92 92 92 92 92 92 92 92 100 92 92 92 92 92 92 92 92 92 92 92 92 92 92 92 92 92 92 92 92 92 92 92 92 92 92 92 92 92 92 92 92 92 92 92 92 92 92 92 92 92